Regional Weather Roundup
Issued by NWS

Home | Current Version | Previous Version | Text Only | Print | Product List | Glossary On
Versions: 1 2 3 4 5 6 7 8 9 10 11 12 13 14 15 16 17 18 19 20 21 22 23 24 25 26 27 28 29 30 31 32 33 34 35 36 37 38 39 40 41 42 43 44 45 46 47 48 49 50
000
ASUS43 KMKX 040821
RWRWI

WISCONSIN REGIONAL WEATHER ROUNDUP
NATIONAL WEATHER SERVICE MILWAUKEE/SULLIVAN WI
300 AM CDT TUE AUG 04 2015

NOTE: "FAIR" INDICATES FEW OR NO CLOUDS BELOW 12,000 FEET WITH NO
SIGNIFICANT WEATHER AND/OR OBSTRUCTIONS TO VISIBILITY.

WIZ001-002-006>008-014>016-023>028-040900-
NORTHWEST WISCONSIN

CITY           SKY/WX    TMP DP  RH WIND       PRES   REMARKS
SUPERIOR ARPT  PTCLDY    50  49  98 S3        29.91S
ASHLAND        MOCLDY    59  53  80 CALM      29.89S
HAYWARD        CLEAR     51  48  89 CALM      29.93S
SIREN          CLEAR     52  50  93 CALM      29.93S
CUMBERLAND     CLEAR     52  50  93 CALM      29.94S
RICE LAKE      CLEAR     55  52  90 CALM      29.94S
CHETEK         CLEAR     58  54  88 NW5       29.93S
LADYSMITH      CLEAR     57  53  85 NW3       29.94S
EAU CLAIRE     CLEAR     58  53  84 W3        29.93R
MENOMONIE      CLEAR     60  54  82 W5        29.95R
NEW RICHMOND   CLEAR     54  52  95 SW3       29.96R
OSCEOLA        CLEAR     54  54 100 CALM      29.98R
$$

WIZ003>005-009-010-017-018-040900-
NORTH CENTRAL WISCONSIN

CITY           SKY/WX    TMP DP  RH WIND       PRES   REMARKS
MANITOWISH WTR FOG       50  50 100 CALM      29.89S VSB 1/2
ARBOR VITAE    CLEAR     57  55  92 CALM      29.90R
WOODRUFF       CLEAR     57  55  92 CALM      29.90R
RHINELANDER    FAIR      54  52  93 W5        29.90F
EAGLE RIVER    PTCLDY    54  54 100 W5        29.88S
LAND O LAKES   MOCLDY    56  55  96 W3        29.90R
PHILLIPS       PTCLDY    55  54  94 CALM      29.91S
TOMAHAWK       CLOUDY    55  53  94 CALM      29.91S
MEDFORD        CLEAR     55  53  91 W5        29.91S
MERRILL        NOT AVBL
$$

WIZ029-030-035-036-043>047-040900-
CENTRAL WISCONSIN

CITY           SKY/WX    TMP DP  RH WIND       PRES   REMARKS
WAUSAU         CLOUDY    63  55  75 NW7       29.88S
MOSINEE        PTCLDY    59  55  88 W6        29.91S
MARSHFIELD     PTCLDY    59  52  77 NW5       29.91S
STEVENS POINT  MOCLDY    61  53  75 W3        29.90S
WAUPACA        MOCLDY    61  56  83 CALM      29.90R
WAUTOMA        CLEAR     54  51  89 CALM      29.91R
WISC RAPIDS    MOCLDY    60  51  72 NW3       29.91R
CAMP DOUGLAS   PTCLDY    48  48 100 NW1       29.91R
$$

WIZ011>013-019>022-031-037>040-048>050-040900-
NORTHEAST WISCONSIN

CITY           SKY/WX    TMP DP  RH WIND       PRES   REMARKS
ANTIGO         CLOUDY    57  55  91 W3        29.90S
SHAWANO        MOCLDY    59  55  87 CALM      29.89S
OCONTO         PTCLDY    55  55 100 CALM      29.86S
STURGEON BAY   MOCLDY    61  54  77 W3        29.89R
GREEN BAY      PTCLDY    57  55  93 W6        29.88S
MANITOWOC      PTCLDY    62  55  77 MISG      29.88S
APPLETON       PTCLDY    57  52  82 W7        29.89S
CLINTONVILLE   CLOUDY    55  54  94 CALM      29.89R
OSHKOSH        CLEAR     61  52  72 W3        29.88S
$$

WIZ032>034-041-042-053>061-040900-
SOUTHWEST WISCONSIN

CITY           SKY/WX    TMP DP  RH WIND       PRES   REMARKS
LA CROSSE      CLEAR     61  56  83 SE3       29.93R
SPARTA         PTCLDY    50  48  95 CALM      29.93R
VIROQUA        CLEAR     56  53  87 SW7       29.94R
BOSCOBEL       CLEAR     55  53  93 SW3       29.94R
PRAIRIE DU CHI CLEAR     56  53  89 CALM      29.94S
PLATTEVILLE    CLEAR     59  55  85 W3        29.95R
$$

WIZ056-057-062-063-064-067-068-040900-
SOUTH CENTRAL WISCONSIN

CITY           SKY/WX    TMP DP  RH WIND       PRES   REMARKS
REEDSBURG      CLEAR     54  53  95 CALM      29.92S
BARABOO/DELLS  CLEAR     56  50  82 SW3       29.92R
LONE ROCK      CLEAR     54  51  90 CALM      29.94R
MINERAL POINT  CLEAR     59  54  82 W3        29.94S
MADISON        CLEAR     60  52  74 CALM      29.91S
MIDDLETON      CLEAR     56  52  86 CALM      29.92F
WATERTOWN      CLEAR     54  54 100 CALM      29.91S
MONROE         CLEAR     63  52  67 W10       29.93S
JANESVILLE     CLEAR     59  54  82 CALM      29.92R
$$

WIZ051-052-058>065-066-070>072-040900-
SOUTHEAST WISCONSIN

CITY           SKY/WX    TMP DP  RH WIND       PRES   REMARKS
MILWAUKEE      CLEAR     66  52  60 W5        29.90S
WAUKESHA       CLEAR     55  50  82 CALM      29.93R
MILWAUKEE/TIMM FAIR      61  50  67 CALM      29.91S
RACINE         CLEAR     62  53  72 W7        29.92S
BURLINGTON     CLEAR     53  51  94 CALM      29.92S
KENOSHA        CLEAR     58  54  86 W3        29.91S
FOND DU LAC    CLEAR     58  53  84 SW6       29.89F
SHEBOYGAN      MOCLDY    58  55  90 SW3       29.89S
WEST BEND      CLEAR     55  52  88 CALM      29.90S
JUNEAU         CLEAR     54  51  90 SW5       29.92S
$$

LSZ147-162-040900-
LAKE SUPERIOR

STATION/POSITION TIME  TEMP    WIND        PRES    WAVE
                       AIR SEA DIR/SP/G            HT/PER
                 (UTC) (F)     (DEG/KT/KT) (MB)    (FT/S)
W MID LAKE BUOY  0750   57 56  280/  8/ 10 1010.7R   1/ 4
DEVILS ISLAND    0800   57     260/ 12/ 14 1011.8R
PORT WING        0740   62     240/  6/ 10 1012.5S
SAXON HARBOR     0740   61     210/  2     1011.5S
$$

LMZ867-665-643>646-040900-
LAKE MICHIGAN

STATION/POSITION TIME  TEMP    WIND        PRES    WAVE
                       AIR SEA DIR/SP/G            HT/PER
                 (UTC) (F)     (DEG/KT/KT) (MB)    (FT/S)
CHAMBERS ISLAND  0700   63     270/  3/  6 1010.8S
S GREEN BAY BUOY 0800   64 71  270/  8/ 10 1012.7S
N MID LAKE BUOY  0750   64 67  270/ 10/ 12 1009.7S   1/ 3
NORTHPORT PIER   0700   64     290/  9/ 14 1010.5F
SISTER BAY       0718   66     340/ 17/ 19   N/A
ALGOMA LAKESHORE 0712             CALM       N/A
KEWAUNEE LAKESHO 0700   60     300/  4/  5 1011.0R
SHEBOYGAN LAKESH 0800   63     260/  6/  7 1012.0F
PORT WASHINGTON  0700   64     290/  4/  6 1012.9S
ATWATER BUOY     0800   63 59  260/  6/  6 1013.7S
MILWAUKEE LAKESH 0800   67     280/  5/  6   N/A
KENOSHA   LAKESH 0800   66     280/  9/ 11 1012.2F
$$

TC  - TEMPERATURE IN CELSIUS
VSB - VISIBILITY IN STATUTE MILES
WCI - WIND CHILL INDEX
HX  - HEAT INDEX




USA.gov is the U.S. government's official web portal to all federal, state and local government web resources and services.